• In Austria
  • List of Countries
  • For 7 days
  • Water Temperature
  • Satellite Maps
  • Weather Map
  • News
  • Weather Widgets
  • user-avatar
    Login

    Hourly Weather Ivanischevo

    Today, 23 October, Tuesday

    Time Temperature Precipitation Wind Pressure Humidity
    00:00 +5°C° 0.7 mm 4 mps 735 mmHg 88%
    01:00 +5°C° 0.7 mm 4 mps 735 mmHg 89%
    02:00 +5°C° 0.7 mm 3 mps 734 mmHg 91%
    03:00 +5°C° 0.3 mm 3 mps 734 mmHg 91%
    04:00 +4°C° 0.3 mm 3 mps 733 mmHg 90%
    05:00 +4°C° 0.3 mm 3 mps 733 mmHg 90%
    06:00 +4°C° 0 mm 3 mps 733 mmHg 90%
    07:00 +3°C° 0 mm 3 mps 733 mmHg 91%
    08:00 +4°C° 0 mm 2 mps 733 mmHg 91%
    09:00 +4°C° 0 mm 2 mps 732 mmHg 87%
    10:00 +5°C° 0 mm 2 mps 732 mmHg 83%
    11:00 +5°C° 0 mm 2 mps 732 mmHg 79%
    12:00 +6°C° 0 mm 2 mps 731 mmHg 76%
    13:00 +6°C° 0 mm 2 mps 730 mmHg 72%
    14:00 +6°C° 0 mm 2 mps 729 mmHg 69%
    15:00 +6°C° 0 mm 2 mps 728 mmHg 73%
    16:00 +5°C° 0 mm 2 mps 728 mmHg 76%
    17:00 +4°C° 0 mm 2 mps 727 mmHg 80%
    18:00 +4°C° 0 mm 2 mps 726 mmHg 81%
    19:00 +3°C° 0 mm 3 mps 725 mmHg 81%
    20:00 +3°C° 0 mm 3 mps 724 mmHg 81%
    21:00 +3°C° 0.1 mm 3 mps 723 mmHg 81%
    22:00 +3°C° 0.1 mm 3 mps 722 mmHg 80%
    23:00 +3°C° 0.1 mm 4 mps 721 mmHg 80%

    Tomorrow, 24 October, Wednesday

    Time Temperature Precipitation Wind Pressure Humidity
    00:00 +3°C° 0.1 mm 4 mps 720 mmHg 80%
    01:00 +3°C° 0.1 mm 4 mps 719 mmHg 80%
    02:00 +2°C° 0.1 mm 5 mps 718 mmHg 80%
    03:00 +2°C° 0.4 mm 5 mps 718 mmHg 82%
    04:00 +2°C° 0.4 mm 5 mps 717 mmHg 83%
    05:00 +2°C° 0.4 mm 5 mps 716 mmHg 84%
    06:00 +3°C° 0.4 mm 4 mps 715 mmHg 85%
    07:00 +3°C° 0.4 mm 4 mps 715 mmHg 85%
    08:00 +3°C° 0.4 mm 4 mps 715 mmHg 86%
    09:00 +3°C° 0.2 mm 4 mps 715 mmHg 86%
    10:00 +4°C° 0.2 mm 3 mps 715 mmHg 85%
    11:00 +4°C° 0.2 mm 3 mps 715 mmHg 85%
    12:00 +4°C° 0.4 mm 3 mps 715 mmHg 85%
    13:00 +4°C° 0.4 mm 3 mps 715 mmHg 86%
    14:00 +5°C° 0.4 mm 2 mps 715 mmHg 86%
    15:00 +5°C° 0.3 mm 2 mps 716 mmHg 88%
    16:00 +4°C° 0.3 mm 2 mps 716 mmHg 90%
    17:00 +4°C° 0.3 mm 2 mps 716 mmHg 92%
    18:00 +4°C° 0.2 mm 2 mps 717 mmHg 92%
    19:00 +4°C° 0.2 mm 2 mps 717 mmHg 93%
    20:00 +4°C° 0.2 mm 2 mps 717 mmHg 93%
    21:00 +3°C° 0.3 mm 3 mps 718 mmHg 92%
    22:00 +3°C° 0.3 mm 3 mps 718 mmHg 92%
    23:00 +3°C° 0.3 mm 3 mps 718 mmHg 92%

    Day after tomorrow, 25 October, Thursday

    Time Temperature Precipitation Wind Pressure Humidity
    00:00 +3°C° 0.4 mm 3 mps 719 mmHg 91%
    01:00 +3°C° 0.4 mm 3 mps 719 mmHg 91%
    02:00 +3°C° 0.4 mm 3 mps 719 mmHg 90%
    03:00 +3°C° 0.2 mm 4 mps 719 mmHg 89%
    04:00 +1°C° 0.2 mm 4 mps 719 mmHg 88%
    05:00 +1°C° 0.2 mm 4 mps 719 mmHg 87%
    06:00 +1°C° 0 mm 4 mps 719 mmHg 85%
    07:00 0°C° 0 mm 5 mps 719 mmHg 84%
    08:00 0°C° 0 mm 5 mps 719 mmHg 82%
    09:00 0°C° 0 mm 5 mps 719 mmHg 80%
    10:00 +1°C° 0 mm 5 mps 719 mmHg 79%
    11:00 +1°C° 0 mm 5 mps 719 mmHg 77%
    12:00 +1°C° 0 mm 6 mps 719 mmHg 76%
    13:00 +1°C° 0 mm 6 mps 719 mmHg 76%
    14:00 +1°C° 0 mm 6 mps 719 mmHg 75%
    15:00 +1°C° 0.1 mm 6 mps 719 mmHg 76%
    16:00 +1°C° 0.1 mm 6 mps 719 mmHg 76%
    17:00 -1°C° 0.1 mm 6 mps 719 mmHg 76%
    18:00 -1°C° 0 mm 6 mps 719 mmHg 77%
    19:00 0°C° 0 mm 5 mps 720 mmHg 77%
    20:00 0°C° 0 mm 5 mps 720 mmHg 77%
    21:00 0°C° 0 mm 5 mps 720 mmHg 80%
    22:00 0°C° 0 mm 5 mps 721 mmHg 82%
    23:00 -1°C° 0 mm 5 mps 721 mmHg 84%

    26 October, Friday

    Time Temperature Precipitation Wind Pressure Humidity
    00:00 -1°C° 0 mm 5 mps 721 mmHg 85%
    01:00 -1°C° 0 mm 5 mps 722 mmHg 85%
    02:00 -1°C° 0 mm 4 mps 723 mmHg 85%
    03:00 -1°C° 0 mm 4 mps 723 mmHg 86%
    04:00 -1°C° 0 mm 4 mps 724 mmHg 86%
    05:00 -1°C° 0 mm 4 mps 724 mmHg 86%
    06:00 -1°C° 0 mm 4 mps 724 mmHg 87%
    07:00 -1°C° 0 mm 4 mps 725 mmHg 87%
    08:00 -1°C° 0 mm 4 mps 725 mmHg 87%
    09:00 0°C° 0 mm 4 mps 726 mmHg 85%
    10:00 0°C° 0 mm 4 mps 726 mmHg 84%
    11:00 +1°C° 0 mm 4 mps 726 mmHg 82%
    12:00 +1°C° 0 mm 4 mps 727 mmHg 81%
    13:00 +1°C° 0 mm 4 mps 727 mmHg 81%
    14:00 +1°C° 0 mm 4 mps 727 mmHg 80%
    15:00 +1°C° 0.1 mm 4 mps 728 mmHg 81%
    16:00 +1°C° 0.1 mm 4 mps 728 mmHg 82%
    17:00 +2°C° 0.1 mm 3 mps 728 mmHg 82%
    18:00 +1°C° 0.1 mm 3 mps 729 mmHg 84%
    19:00 +1°C° 0.1 mm 3 mps 729 mmHg 86%
    20:00 +1°C° 0.1 mm 3 mps 729 mmHg 88%
    21:00 0°C° 0 mm 3 mps 730 mmHg 89%
    22:00 0°C° 0 mm 3 mps 730 mmHg 91%
    23:00 0°C° 0 mm 3 mps 731 mmHg 93%

    27 October, Saturday

    Time Temperature Precipitation Wind Pressure Humidity
    00:00 -1°C° 0 mm 3 mps 731 mmHg 93%
    01:00 -1°C° 0 mm 3 mps 732 mmHg 94%
    02:00 -1°C° 0 mm 2 mps 732 mmHg 95%
    03:00 -2°C° 0 mm 2 mps 732 mmHg 96%
    04:00 -2°C° 0 mm 2 mps 733 mmHg 96%
    05:00 -2°C° 0 mm 2 mps 733 mmHg 97%
    06:00 -1°C° 0 mm 2 mps 733 mmHg 95%
    07:00 -1°C° 0 mm 2 mps 733 mmHg 94%
    08:00 -1°C° 0 mm 2 mps 734 mmHg 93%
    09:00 +1°C° 0 mm 3 mps 733 mmHg 88%
    10:00 +2°C° 0 mm 3 mps 733 mmHg 84%
    11:00 +3°C° 0 mm 4 mps 733 mmHg 79%
    12:00 +3°C° 0.1 mm 4 mps 733 mmHg 80%
    13:00 +4°C° 0.1 mm 4 mps 732 mmHg 80%
    14:00 +3°C° 0.1 mm 5 mps 732 mmHg 80%
    15:00 +3°C° 0.3 mm 5 mps 731 mmHg 82%
    16:00 +3°C° 0.3 mm 5 mps 731 mmHg 84%
    17:00 +3°C° 0.3 mm 5 mps 730 mmHg 86%
    18:00 +3°C° 0.2 mm 5 mps 730 mmHg 86%
    19:00 +5°C° 0.2 mm 5 mps 730 mmHg 86%
    20:00 +5°C° 0.2 mm 5 mps 730 mmHg 86%
    21:00 +5°C° 0.1 mm 5 mps 730 mmHg 87%
    22:00 +5°C° 0.1 mm 4 mps 730 mmHg 88%
    23:00 +5°C° 0.1 mm 4 mps 731 mmHg 88%

    28 October, Sunday

    Time Temperature Precipitation Wind Pressure Humidity
    00:00 +5°C° 0.1 mm 3 mps 731 mmHg 90%
    01:00 +4°C° 0.1 mm 3 mps 731 mmHg 92%
    02:00 +5°C° 0.1 mm 2 mps 731 mmHg 93%
    03:00 +5°C° 0.1 mm 2 mps 731 mmHg 94%
    04:00 +5°C° 0.1 mm 2 mps 731 mmHg 95%
    05:00 +5°C° 0.1 mm 2 mps 731 mmHg 95%
    06:00 +5°C° 0.3 mm 2 mps 731 mmHg 96%
    07:00 +6°C° 0.3 mm 1 mps 731 mmHg 96%
    08:00 +6°C° 0.3 mm 1 mps 731 mmHg 96%
    09:00 +6°C° 0.4 mm 1 mps 731 mmHg 96%
    10:00 +6°C° 0.4 mm 1 mps 731 mmHg 95%
    11:00 +7°C° 0.4 mm 1 mps 731 mmHg 94%
    12:00 +7°C° 1.1 mm 1 mps 730 mmHg 95%
    13:00 +7°C° 1.1 mm 1 mps 730 mmHg 96%
    14:00 +6°C° 1.1 mm 1 mps 730 mmHg 97%
    15:00 +6°C° 1.9 mm 1 mps 729 mmHg 97%
    16:00 +5°C° 1.9 mm 2 mps 729 mmHg 97%
    17:00 +5°C° 1.9 mm 2 mps 728 mmHg 97%
    18:00 +6°C° 0.6 mm 2 mps 728 mmHg 97%
    19:00 +6°C° 0.6 mm 2 mps 727 mmHg 96%
    20:00 +5°C° 0.6 mm 3 mps 727 mmHg 96%
    21:00 +7°C° 0.2 mm 3 mps 727 mmHg 94%
    22:00 +7°C° 0.2 mm 4 mps 727 mmHg 92%
    23:00 +8°C° 0.2 mm 5 mps 727 mmHg 91%

    29 October, Monday

    Time Temperature Precipitation Wind Pressure Humidity
    00:00 +7°C° 0.1 mm 6 mps 728 mmHg 88%
    01:00 +5°C° 0.1 mm 6 mps 728 mmHg 85%
    02:00 +4°C° 0.1 mm 7 mps 729 mmHg 82%
    03:00 +3°C° 0 mm 6 mps 730 mmHg 82%
    04:00 +3°C° 0 mm 6 mps 732 mmHg 81%
    05:00 +2°C° 0 mm 5 mps 733 mmHg 81%
    06:00 +2°C° 0 mm 5 mps 734 mmHg 82%
    07:00 +3°C° 0 mm 5 mps 735 mmHg 82%
    08:00 +4°C° 0 mm 4 mps 736 mmHg 83%
    09:00 +4°C° 0 mm 4 mps 737 mmHg 80%
    10:00 +4°C° 0 mm 4 mps 737 mmHg 78%
    11:00 +4°C° 0 mm 4 mps 738 mmHg 75%
    12:00 +4°C° 0 mm 4 mps 739 mmHg 76%
    13:00 +4°C° 0 mm 4 mps 739 mmHg 76%
    14:00 +4°C° 0 mm 4 mps 740 mmHg 77%
    15:00 +4°C° 0 mm 3 mps 741 mmHg 79%
    16:00 +3°C° 0 mm 3 mps 741 mmHg 82%
    17:00 +3°C° 0 mm 3 mps 742 mmHg 84%
    18:00 +3°C° 0 mm 2 mps 742 mmHg 86%
    19:00 +3°C° 0 mm 2 mps 742 mmHg 88%
    20:00 +3°C° 0 mm 2 mps 743 mmHg 90%
    21:00 +2°C° 0 mm 2 mps 743 mmHg 90%
    22:00 +3°C° 0 mm 1 mps 744 mmHg 91%
    23:00 +3°C° 0 mm 1 mps 744 mmHg 92%
    Show more